| time (UTC) | temp C | wind direction | speed KPH | gust KPH | rain 1hr cm | rain 24hr cm | rain mn cm | humidity % | barometer mb |
| 20260504210529 | 18 | 12 | 16.1 | 32.2 | 0.00 | 0.00 | 0.00 | 33 | 1008.8 |
| 20260504210029 | 19 | 15 | 11.3 | 32.2 | 0.00 | 0.00 | 0.00 | 31 | 1008.8 |
| 20260504205529 | 20 | 311 | 4.8 | 16.1 | 0.00 | 0.00 | 0.00 | 29 | 1008.8 |
| 20260504205029 | 20 | 137 | 4.8 | 11.3 | 0.00 | 0.00 | 0.00 | 28 | 1008.4 |
| 20260504204523 | 21 | 20 | 6.4 | 11.3 | 0.00 | 0.00 | 0.00 | 28 | 1008.3 |
| 20260504204252 | 21 | 171 | 8.0 | 14.5 | 0.00 | 0.00 | 0.00 | 27 | 1008.3 |
| 20260504203521 | 22 | 214 | 9.7 | 20.9 | 0.00 | 0.00 | 0.00 | 26 | 1008.1 |
| 20260504203021 | 22 | 151 | 8.0 | 20.9 | 0.00 | 0.00 | 0.00 | 26 | 1008.2 |
| 20260504202520 | 21 | 138 | 6.4 | 19.3 | 0.00 | 0.00 | 0.00 | 26 | 1008.1 |
| 20260504202021 | 21 | 193 | 6.4 | 11.3 | 0.00 | 0.00 | 0.00 | 28 | 1008.1 |
| 20260504201521 | 20 | 221 | 4.8 | 11.3 | 0.00 | 0.00 | 0.00 | 29 | 1008.1 |
| 20260504201021 | 19 | 20 | 6.4 | 17.7 | 0.00 | 0.00 | 0.00 | 30 | 1008.2 |
| 20260504200752 | 19 | 155 | 9.7 | 17.7 | 0.00 | 0.00 | 0.00 | 30 | 1008.2 |
| 20260504200019 | 19 | 20 | 11.3 | 20.9 | 0.00 | 0.00 | 0.00 | 29 | 1008.1 |
| 20260504195518 | 20 | 20 | 11.3 | 29.0 | 0.00 | 0.00 | 0.00 | 28 | 1008.1 |
| 20260504195016 | 21 | 20 | 11.3 | 29.0 | 0.00 | 0.00 | 0.00 | 26 | 1008.1 |
| 20260504194514 | 22 | 20 | 8.0 | 25.7 | 0.00 | 0.00 | 0.00 | 23 | 1008.3 |
| 20260504194246 | 23 | 220 | 4.8 | 11.3 | 0.00 | 0.00 | 0.00 | 19 | 1008.2 |
| 20260504193515 | 24 | 20 | 3.2 | 20.9 | 0.00 | 0.00 | 0.00 | 18 | 1007.9 |
| 20260504193015 | 25 | 331 | 3.2 | 20.9 | 0.00 | 0.00 | 0.00 | 17 | 1007.7 |
| 20260504192515 | 25 | 320 | 6.4 | 20.9 | 0.00 | 0.00 | 0.00 | 17 | 1007.7 |
| 20260504192014 | 25 | 268 | 6.4 | 20.9 | 0.00 | 0.00 | 0.00 | 17 | 1007.6 |
| 20260504191516 | 24 | 232 | 6.4 | 14.5 | 0.00 | 0.00 | 0.00 | 19 | 1007.5 |
| 20260504191015 | 23 | 20 | 4.8 | 11.3 | 0.00 | 0.00 | 0.00 | 17 | 1007.6 |
| 20260504190512 | 23 | 20 | 4.8 | 12.9 | 0.00 | 0.00 | 0.00 | 19 | 1007.7 |
| 20260504190244 | 23 | 55 | 4.8 | 12.9 | 0.00 | 0.00 | 0.00 | 20 | 1007.6 |
| 20260504185513 | 23 | 7 | 6.4 | 12.9 | 0.00 | 0.00 | 0.00 | 20 | 1007.6 |
| 20260504185013 | 23 | 314 | 6.4 | 12.9 | 0.00 | 0.00 | 0.00 | 20 | 1007.7 |
| 20260504184513 | 23 | 14 | 8.0 | 16.1 | 0.00 | 0.00 | 0.00 | 20 | 1007.6 |
| 20260504184244 | 23 | 44 | 9.7 | 17.7 | 0.00 | 0.00 | 0.00 | 20 | 1007.7 |
| 20260504183513 | 23 | 297 | 9.7 | 20.9 | 0.00 | 0.00 | 0.00 | 20 | 1007.8 |
| 20260504183013 | 23 | 307 | 11.3 | 32.2 | 0.00 | 0.00 | 0.00 | 20 | 1007.9 |
| 20260504182511 | 23 | 20 | 11.3 | 32.2 | 0.00 | 0.00 | 0.00 | 20 | 1007.9 |
| 20260504182008 | 23 | 290 | 12.9 | 24.1 | 0.00 | 0.00 | 0.00 | 21 | 1007.9 |
| 20260504181509 | 23 | 20 | 12.9 | 24.1 | 0.00 | 0.00 | 0.00 | 21 | 1008.1 |
| 20260504181006 | 23 | 8 | 11.3 | 22.5 | 0.00 | 0.00 | 0.00 | 23 | 1008.2 |
| 20260504180739 | 23 | 291 | 11.3 | 25.7 | 0.00 | 0.00 | 0.00 | 22 | 1008.2 |
| 20260504180001 | 23 | 294 | 9.7 | 29.0 | 0.00 | 0.00 | 0.00 | 23 | 1008.2 |
| 20260504175501 | 22 | 320 | 9.7 | 29.0 | 0.00 | 0.00 | 0.00 | 24 | 1008.4 |
| 20260504175232 | 22 | 328 | 9.7 | 20.9 | 0.00 | 0.00 | 0.00 | 25 | 1008.4 |
| 20260504174500 | 22 | 302 | 11.3 | 30.6 | 0.00 | 0.00 | 0.00 | 24 | 1008.5 |
| 20260504173959 | 21 | 280 | 12.9 | 30.6 | 0.00 | 0.00 | 0.00 | 25 | 1008.8 |
| 20260504173458 | 21 | 268 | 12.9 | 25.7 | 0.00 | 0.00 | 0.00 | 25 | 1009.0 |
| 20260504172959 | 21 | 331 | 11.3 | 35.4 | 0.00 | 0.00 | 0.00 | 25 | 1009.1 |
| 20260504172459 | 21 | 7 | 9.7 | 35.4 | 0.00 | 0.00 | 0.00 | 25 | 1009.1 |
| 20260504171958 | 21 | 2 | 9.7 | 20.9 | 0.00 | 0.00 | 0.00 | 25 | 1009.2 |
| 20260504171457 | 21 | 254 | 11.3 | 22.5 | 0.00 | 0.00 | 0.00 | 26 | 1009.3 |
| 20260504170957 | 21 | 308 | 9.7 | 22.5 | 0.00 | 0.00 | 0.00 | 26 | 1009.3 |
| 20260504170428 | 21 | 299 | 8.0 | 22.5 | 0.00 | 0.00 | 0.00 | 27 | 1009.3 |
| 20260504160419 | 17 | 20 | 4.8 | 17.7 | 0.00 | 0.00 | 0.00 | 30 | 1009.5 |
| 20260504160148 | 17 | 20 | 4.8 | 17.7 | 0.00 | 0.00 | 0.00 | 30 | 1009.5 |
| 20260504150913 | 15 | 20 | 3.2 | 8.0 | 0.00 | 0.00 | 0.00 | 35 | 1009.7 |
| 20260504150416 | 15 | 20 | 3.2 | 9.7 | 0.00 | 0.00 | 0.00 | 35 | 1009.7 |
| 20260504150412 | 15 | 20 | 1.6 | 9.7 | 0.00 | 0.00 | 0.00 | 36 | 1009.7 |
| 20260504140856 | 10 | 316 | 0.0 | 1.6 | 0.00 | 0.00 | 0.00 | 49 | 1009.9 |
| 20260504140357 | 10 | 20 | 0.0 | 0.0 | 0.00 | 0.00 | 0.00 | 51 | 1010.0 |
| 20260504130339 | 7 | 242 | 1.6 | 9.7 | 0.00 | 0.00 | 0.00 | 60 | 1009.5 |
| 20260504110254 | 4 | 299 | 0.0 | 1.6 | 0.00 | 0.00 | 0.00 | 57 | 1009.7 |
| 20260504100244 | 5 | 299 | 0.0 | 1.6 | 0.00 | 0.00 | 0.00 | 58 | 1009.9 |
| 20260504081648 | 7 | 299 | 0.0 | 0.0 | 0.00 | 0.00 | 0.00 | 49 | 1010.4 |
| 20260504081146 | 7 | 299 | 0.0 | 0.0 | 0.00 | 0.00 | 0.00 | 48 | 1010.4 |
| 20260504080646 | 8 | 299 | 0.0 | 1.6 | 0.00 | 0.00 | 0.00 | 48 | 1010.5 |
| 20260504080144 | 8 | 299 | 0.0 | 1.6 | 0.00 | 0.00 | 0.00 | 48 | 1010.5 |
| 20260504070134 | 11 | 300 | 1.6 | 8.0 | 0.00 | 0.00 | 0.00 | 41 | 1011.1 |
| 20260504060121 | 13 | 320 | 4.8 | 11.3 | 0.00 | 0.00 | 0.00 | 34 | 1011.0 |
| 20260504050618 | 15 | 324 | 4.8 | 17.7 | 0.00 | 0.00 | 0.00 | 31 | 1011.0 |
| 20260504050111 | 16 | 20 | 1.6 | 6.4 | 0.00 | 0.00 | 0.00 | 29 | 1010.6 |
| 20260504045612 | 16 | 267 | 1.6 | 6.4 | 0.00 | 0.00 | 0.00 | 28 | 1010.6 |
| 20260504045110 | 16 | 254 | 1.6 | 6.4 | 0.00 | 0.00 | 0.00 | 28 | 1010.7 |
| 20260504044610 | 16 | 265 | 1.6 | 11.3 | 0.00 | 0.00 | 0.00 | 28 | 1010.6 |
| 20260504044107 | 16 | 276 | 1.6 | 11.3 | 0.00 | 0.00 | 0.00 | 28 | 1010.6 |
| 20260504043838 | 16 | 257 | 3.2 | 9.7 | 0.00 | 0.00 | 0.00 | 27 | 1010.9 |
| 20260504043106 | 16 | 244 | 3.2 | 9.7 | 0.00 | 0.00 | 0.00 | 27 | 1010.9 |
| 20260504042606 | 17 | 287 | 3.2 | 9.7 | 0.00 | 0.00 | 0.00 | 27 | 1010.9 |
| 20260504042103 | 17 | 289 | 3.2 | 8.0 | 0.00 | 0.00 | 0.00 | 27 | 1010.9 |
| 20260504041604 | 17 | 289 | 3.2 | 11.3 | 0.00 | 0.00 | 0.00 | 27 | 1011.1 |
| 20260504041102 | 17 | 212 | 3.2 | 11.3 | 0.00 | 0.00 | 0.00 | 26 | 1011.0 |
| 20260504040601 | 17 | 239 | 3.2 | 12.9 | 0.00 | 0.00 | 0.00 | 26 | 1011.1 |
| 20260504040100 | 17 | 231 | 3.2 | 12.9 | 0.00 | 0.00 | 0.00 | 26 | 1011.0 |
| 20260504035559 | 17 | 233 | 3.2 | 12.9 | 0.00 | 0.00 | 0.00 | 26 | 1011.1 |
| 20260504035328 | 17 | 216 | 4.8 | 11.3 | 0.00 | 0.00 | 0.00 | 26 | 1011.1 |
| 20260504034828 | 17 | 230 | 4.8 | 12.9 | 0.00 | 0.00 | 0.00 | 26 | 1011.1 |
| 20260504034056 | 17 | 257 | 4.8 | 14.5 | 0.00 | 0.00 | 0.00 | 26 | 1011.2 |
| 20260504033555 | 17 | 220 | 3.2 | 14.5 | 0.00 | 0.00 | 0.00 | 26 | 1011.2 |
| 20260504033054 | 17 | 261 | 3.2 | 12.9 | 0.00 | 0.00 | 0.00 | 26 | 1011.2 |
| 20260504032553 | 17 | 263 | 4.8 | 11.3 | 0.00 | 0.00 | 0.00 | 26 | 1011.3 |
| 20260504032323 | 18 | 316 | 3.2 | 16.1 | 0.00 | 0.00 | 0.00 | 25 | 1011.3 |
| 20260504031547 | 18 | 267 | 3.2 | 16.1 | 0.00 | 0.00 | 0.00 | 25 | 1011.2 |
| 20260504031046 | 18 | 247 | 4.8 | 11.3 | 0.00 | 0.00 | 0.00 | 25 | 1011.1 |
| 20260504030545 | 18 | 218 | 4.8 | 11.3 | 0.00 | 0.00 | 0.00 | 25 | 1011.2 |
| 20260504030044 | 18 | 214 | 4.8 | 11.3 | 0.00 | 0.00 | 0.00 | 25 | 1011.2 |
| 20260504025544 | 18 | 246 | 6.4 | 14.5 | 0.00 | 0.00 | 0.00 | 25 | 1011.2 |
| 20260504025046 | 18 | 187 | 4.8 | 14.5 | 0.00 | 0.00 | 0.00 | 25 | 1011.1 |
| 20260504025042 | 18 | 239 | 4.8 | 14.5 | 0.00 | 0.00 | 0.00 | 25 | 1011.1 |
| 20260504024039 | 17 | 243 | 6.4 | 16.1 | 0.00 | 0.00 | 0.00 | 25 | 1011.0 |
| 20260504023540 | 17 | 234 | 6.4 | 16.1 | 0.00 | 0.00 | 0.00 | 25 | 1011.1 |
| 20260504023304 | 17 | 232 | 6.4 | 11.3 | 0.00 | 0.00 | 0.00 | 25 | 1011.0 |
| 20260504022533 | 17 | 226 | 4.8 | 11.3 | 0.00 | 0.00 | 0.00 | 25 | 1011.1 |
| 20260504022304 | 17 | 222 | 3.2 | 8.0 | 0.00 | 0.00 | 0.00 | 25 | 1011.1 |
| 20260504021529 | 18 | 226 | 1.6 | 6.4 | 0.00 | 0.00 | 0.00 | 25 | 1011.1 |
| 20260504021027 | 18 | 245 | 1.6 | 6.4 | 0.00 | 0.00 | 0.00 | 25 | 1011.1 |
| 20260504020528 | 18 | 262 | 1.6 | 8.0 | 0.00 | 0.00 | 0.00 | 25 | 1010.9 |
| 20260504020027 | 18 | 263 | 1.6 | 8.0 | 0.00 | 0.00 | 0.00 | 25 | 1010.9 |
| 20260504015528 | 18 | 305 | 0.0 | 6.4 | 0.00 | 0.00 | 0.00 | 25 | 1010.9 |
| 20260504015025 | 19 | 309 | 0.0 | 6.4 | 0.00 | 0.00 | 0.00 | 24 | 1011.0 |
| 20260504014526 | 19 | 309 | 1.6 | 6.4 | 0.00 | 0.00 | 0.00 | 24 | 1010.9 |
| 20260504014026 | 19 | 310 | 1.6 | 6.4 | 0.00 | 0.00 | 0.00 | 23 | 1011.0 |
| 20260504013523 | 19 | 290 | 1.6 | 8.0 | 0.00 | 0.00 | 0.00 | 23 | 1010.9 |
| 20260504013023 | 19 | 290 | 3.2 | 11.3 | 0.00 | 0.00 | 0.00 | 23 | 1010.9 |
| 20260504012522 | 20 | 328 | 3.2 | 12.9 | 0.00 | 0.00 | 0.00 | 23 | 1010.9 |
| 20260504012022 | 20 | 249 | 4.8 | 16.1 | 0.00 | 0.00 | 0.00 | 23 | 1010.9 |
| 20260504011518 | 20 | 52 | 4.8 | 16.1 | 0.00 | 0.00 | 0.00 | 23 | 1010.9 |
| 20260504011015 | 20 | 295 | 3.2 | 12.9 | 0.00 | 0.00 | 0.00 | 24 | 1011.0 |
| 20260504010515 | 20 | 304 | 3.2 | 12.9 | 0.00 | 0.00 | 0.00 | 24 | 1010.9 |
| 20260504010015 | 20 | 274 | 4.8 | 9.7 | 0.00 | 0.00 | 0.00 | 24 | 1011.1 |
| 20260504005514 | 20 | 307 | 4.8 | 9.7 | 0.00 | 0.00 | 0.00 | 24 | 1011.1 |
| 20260504005014 | 20 | 15 | 3.2 | 9.7 | 0.00 | 0.00 | 0.00 | 23 | 1011.0 |
| 20260504004514 | 20 | 335 | 1.6 | 8.0 | 0.00 | 0.00 | 0.00 | 24 | 1011.2 |
| 20260504004013 | 20 | 282 | 1.6 | 11.3 | 0.00 | 0.00 | 0.00 | 24 | 1011.4 |
| 20260504003513 | 20 | 269 | 1.6 | 11.3 | 0.00 | 0.00 | 0.00 | 23 | 1011.4 |
| 20260504003013 | 20 | 320 | 3.2 | 11.3 | 0.00 | 0.00 | 0.00 | 24 | 1011.4 |
| 20260504002511 | 20 | 321 | 1.6 | 11.3 | 0.00 | 0.00 | 0.00 | 23 | 1011.3 |
| 20260504002011 | 20 | 284 | 3.2 | 8.0 | 0.00 | 0.00 | 0.00 | 22 | 1011.4 |
| 20260504001510 | 20 | 291 | 3.2 | 11.3 | 0.00 | 0.00 | 0.00 | 23 | 1011.4 |
| 20260504001240 | 20 | 12 | 3.2 | 11.3 | 0.00 | 0.00 | 0.00 | 24 | 1011.3 |
| 20260504000738 | 20 | 154 | 1.6 | 6.4 | 0.00 | 0.00 | 0.00 | 23 | 1011.6 |
| 20260504000005 | 20 | 304 | 4.8 | 12.9 | 0.00 | 0.00 | 0.00 | 24 | 1011.8 |
| 20260503235732 | 20 | 8 | 8.0 | 17.7 | 0.00 | 0.00 | 0.00 | 23 | 1011.8 |
| 20260503234959 | 20 | 335 | 6.4 | 17.7 | 0.00 | 0.00 | 0.00 | 22 | 1011.9 |
| 20260503234457 | 21 | 315 | 3.2 | 11.3 | 0.00 | 0.00 | 0.00 | 22 | 1011.9 |
| 20260503233957 | 21 | 242 | 3.2 | 11.3 | 0.00 | 0.00 | 0.00 | 22 | 1011.7 |
| 20260503233456 | 21 | 292 | 3.2 | 9.7 | 0.00 | 0.00 | 0.00 | 22 | 1011.4 |
| 20260503232926 | 21 | 272 | 4.8 | 14.5 | 0.00 | 0.00 | 0.00 | 21 | 1011.4 |
| 20260503232426 | 21 | 234 | 4.8 | 14.5 | 0.00 | 0.00 | 0.00 | 22 | 1011.4 |
| 20260503231927 | 21 | 217 | 4.8 | 24.1 | 0.00 | 0.00 | 0.00 | 22 | 1011.3 |
| 20260503231425 | 21 | 220 | 8.0 | 24.1 | 0.00 | 0.00 | 0.00 | 22 | 1011.3 |
| 20260503230926 | 21 | 256 | 12.9 | 25.7 | 0.00 | 0.00 | 0.00 | 22 | 1011.4 |
| 20260503230426 | 21 | 195 | 12.9 | 35.4 | 0.00 | 0.00 | 0.00 | 22 | 1011.6 |
| 20260503230156 | 21 | 230 | 9.7 | 35.4 | 0.00 | 0.00 | 0.00 | 22 | 1011.6 |
| 20260503225657 | 21 | 275 | 8.0 | 22.5 | 0.00 | 0.00 | 0.00 | 20 | 1011.7 |
| 20260503224925 | 21 | 318 | 6.4 | 14.5 | 0.00 | 0.00 | 0.00 | 20 | 1011.4 |
| 20260503224419 | 21 | 284 | 6.4 | 14.5 | 0.00 | 0.00 | 0.00 | 20 | 1011.6 |
| 20260503224148 | 22 | 317 | 3.2 | 9.7 | 0.00 | 0.00 | 0.00 | 19 | 1011.4 |
| 20260503223417 | 22 | 3 | 3.2 | 11.3 | 0.00 | 0.00 | 0.00 | 18 | 1011.3 |
| 20260503222917 | 22 | 10 | 3.2 | 11.3 | 0.00 | 0.00 | 0.00 | 17 | 1011.3 |
| 20260503222416 | 22 | 282 | 3.2 | 8.0 | 0.00 | 0.00 | 0.00 | 18 | 1011.6 |
| 20260503221916 | 22 | 325 | 4.8 | 11.3 | 0.00 | 0.00 | 0.00 | 19 | 1011.6 |
| 20260503221413 | 22 | 16 | 6.4 | 16.1 | 0.00 | 0.00 | 0.00 | 20 | 1011.4 |
| 20260503220913 | 22 | 20 | 9.7 | 16.1 | 0.00 | 0.00 | 0.00 | 18 | 1011.6 |
| 20260503220411 | 22 | 30 | 11.3 | 29.0 | 0.00 | 0.00 | 0.00 | 17 | 1011.4 |
| 20260503215911 | 22 | 288 | 9.7 | 29.0 | 0.00 | 0.00 | 0.00 | 16 | 1011.7 |
| 20260503215411 | 23 | 266 | 6.4 | 24.1 | 0.00 | 0.00 | 0.00 | 16 | 1011.6 |
| 20260503214909 | 23 | 284 | 6.4 | 16.1 | 0.00 | 0.00 | 0.00 | 16 | 1011.6 |
| 20260503214408 | 23 | 222 | 6.4 | 16.1 | 0.00 | 0.00 | 0.00 | 16 | 1011.6 |
| 20260503213909 | 23 | 216 | 8.0 | 16.1 | 0.00 | 0.00 | 0.00 | 15 | 1011.6 |
| 20260503213409 | 23 | 212 | 8.0 | 17.7 | 0.00 | 0.00 | 0.00 | 16 | 1011.7 |
| 20260503212909 | 23 | 198 | 9.7 | 17.7 | 0.00 | 0.00 | 0.00 | 15 | 1011.8 |
| 20260503212407 | 23 | 204 | 11.3 | 20.9 | 0.00 | 0.00 | 0.00 | 16 | 1011.9 |
| 20260503211907 | 23 | 237 | 11.3 | 24.1 | 0.00 | 0.00 | 0.00 | 16 | 1011.9 |
| 20260503211637 | 23 | 214 | 8.0 | 24.1 | 0.00 | 0.00 | 0.00 | 16 | 1012.0 |